STARLINK-35273, 65805

Orbit data source: Space-Track

STARLINK-35273, 65805 is a payload satellite owned by SpaceX/Seattle (US) in SSO that was launched on Fri, 26 Sep 2025 UTC via an FALCON 9 launch vehicle from the Air Force Western Test Range (AFWTR). Payload-class satellites include a variety of spacecraft equipped with specific instruments for various scientific and technological missions. These include communications satellites like Starlink; space stations such as the ISS; scientific satellites like the Hubble; Earth observation satellites from companies like Planet Labs, Umbra, and HawkEye 360; GPS; miniature CubeSats for education and research; and military/defense satellites.

Loading next visibility...
Identifier
65805, 2025-218Q
Orbit
SSO
Country
Flag of USUS
Related business
Manufacturer
SpaceX/Seattle
Mission
Operational Commercial Communications
Bus & Motor
STARLINK V2MO, Unknown motor
Mass
575 kg wet, ~530 kg dry
Launch date (UTC)
2025-09-26 (5 months ago)
Launch vehicle
FALCON 9
Launch site
Air Force Western Test Range (AFWTR)
Object type
Payload
Rocket body
Debris
Shape & HBR
Box + 2 Pan, 17.7 m
Radar Cross Section
36.964 m²

Expand to show TLE details & history
Last TLE update: 16 hours ago

TLE from 16 hours ago
0 STARLINK-35273
1 65805U 25218Q   26062.21767690  .00004408  00000-0  30960-3 0  9993
2 65805  97.6033 286.5415 0002172  84.7037 275.4438 15.05639423 23990
Epoch: 2026-03-03T05:13Z
TLE epoch observation values (Epoch: 2026-03-03T05:13:27.284Z)
Latitude
0.00004°
Longitude
47.17791°
Altitude
552.466 km
Speed
7.586 km/s
True Right ascension
19h 06m 09s
True Declination
0° 00' 00"
Sunlit
Object was in daylight at epoch
Visualization orbit readout
Latitude
Unknown
Longitude
Unknown
Altitude
Unknown
Speed
Unknown
Apparent Right ascension
Unknown
Apparent Declination
Unknown
Sunlit
N/A
Visualization observer readout
Local Sidereal Time
00:36:31
Azimuth
Unknown
Elevation
Unknown
Doppler factor
Unknown
Orbital elements
Apogee altitude
548.041 km
Perigee altitude
545.033 km
Semi-major axis
6,924.674 km
Eccentricity
0.00022
Inclination
97.6033°
RAAN
286.5415°
Arg. of periapsis
84.7037°
True anomaly
275.41902°
Mean anomaly
275.4438°
Eccentric anomaly
275.43141°
Mean motion
3.76655 °/min
Orbital period
95.58 mins
BSTAR
0.0003096
Loading maneuver chart data...
Computing Atmospheric mass density...
Loading historical data...
Loading historical data...
Loading historical data...
Loading historical data...
Loading historical data...
Loading historical data...
Loading historical data...

Documentation

Showing up to 5 results
|